www.pogodaiklimat.ru

Погода и климат >> Архив погоды >> Перу >> Trujillo


ПОГОДА в Trujillo

  • Прогноз погоды в Trujillo
  • Монитор погоды в Trujillo
  • Климат города

АРХИВ ПОГОДЫ в Trujillo

Время (UTC), дата Ветер
(напр.,м/с)
 
Видим.   Явления Облачность Т
(С)
Тd
(С)
f
(%)
Тe
(С)
Тes
(С)
Комфортность P
(гПа)
Po
(гПа)
Тmin
(С)
Tmax
(С)
R
(мм)
R24
(мм)
S
(см)
09 14.06 ЮВ 3 4500 м дымка 10/10 330 м
[St]
+17.3 +16.2 93 +17 +17 1013.9 1011.1
12 14.06 ЮВ 3 4500 м дымка 10/10 150 м
[St]
+17.2 +16.1 93 +17 +17 1014.7 1011.9 +17.0
15 14.06 Ю 4 6000 м дымка 10/10 480 м
[Sc]
+18.2 +15.9 86 +18 +18 1016.6 1013.8
18 14.06 Ю 3 6000 м дымка 10/10 600 м
[Sc]
+18.3 +16.3 88 +19 +19 1015.7 1012.9
21 14.06 Ю 3 6000 м дымка 10/10 720 м
[St]
+18.1 +16.3 89 +18 +18 1013.8 1011.0
00 15.06 ЮВ 3 6000 м дымка 10/10 570 м
[St]
+17.6 +16.1 91 +18 +18 1014.5 1011.7 +19.1
03 15.06 Ю 3 5000 м дымка 10/10 540 м
[St]
+17.6 +15.8 89 +18 +18 1015.8 1013.0
06 15.06 ЮВ 2 5000 м дымка 10/10 480 м
[St]
+17.5 +16.0 91 +18 +18 1015.4 1012.6
09 15.06 ЮВ 2 4000 м дымка 10/10 240 м
[St]
+17.2 +15.8 91 +17 +17 1014.9 1012.0
12 15.06 ЮВ 2 4500 м дымка 10/10 540 м
[St]
+17.0 +15.9 93 +17 +17 1015.7 1012.9 +16.9
15 15.06 Ю 4 8000 м дымка 10/10 500 м
[Sc]
+18.2 +16.2 88 +18 +18 1016.0 1013.7
18 15.06 Ю 4 10 км 9/9 750 м
[Sc]
+19.0 +16.3 84 +20 +21 1015.6 1012.8
21 15.06 Ю 4 8000 м дымка 10/10 720 м
[Sc]
+18.0 +16.2 89 +18 +18 1014.2 1011.4
00 16.06 ЮВ 3 6000 м дымка 8/8 420 м
[St]
+17.6 +16.3 92 +18 +18 1015.3 1012.5 +19.7
03 16.06 ЮВ 3 6000 м дымка 10/10 420 м
[St]
+17.7 +15.7 88 +18 +18 1016.4 1013.6
06 16.06 ЮВ 3 5000 м дымка 10/10 400 м
[St]
+17.4 +15.8 90 +18 +18 1016.2 1013.4
09 16.06 ЮВ 3 5000 м дымка 10/10 360 м
[St]
+17.3 +15.7 90 +17 +17 1015.1 1012.3
12 16.06 ЮВ 3 5000 м дымка 10/10 400 м
[St]
+17.0 +16.0 94 +17 +17 1015.7 1012.9 +17.0
15 16.06 Ю 4 6000 м дымка 10/10 600 м
[St]
+17.8 +16.2 90 +18 +18 1016.4 1013.6
18 16.06 Ю 5 10 км 8/8 600 м
[St]
+19.6 +16.7 83 +22 +23 комфорт 1014.9 1012.1
21 16.06 Ю 4 10 км 6/3 570 м
[St Ac trans]
+19.8 +16.1 79 +22 +24 комфорт 1013.3 1010.5
00 17.06 ЮВ 3 9000 м дымка 3/3 630 м
[St]
+17.9 +16.3 90 +18 +18 1014.4 1011.6 +20.4
03 17.06 ЮВ 3 8000 м дымка ясно +17.3 +15.8 91 +17 +17 1015.2 1012.4
06 17.06 ЮВ 2 6000 м дымка 4/4 240 м
[St]
+16.9 +15.8 93 +17 +17 1015.1 1012.5
09 17.06 ЮВ 4 6000 м дымка 10/10 270 м
[St]
+17.2 +15.7 91 +17 +17 1014.1 1011.3
12 17.06 ЮВ 3 5000 м дымка 10/10 360 м
[St]
+17.2 +15.7 91 +17 +17 1015.2 1012.4 +16.5
15 17.06 Ю 4 7000 м дымка 10/10 400 м
[St]
+18.6 +15.7 83 +19 +19 1015.9 1013.1
18 17.06 Ю 5 10 км 10/10 400 м
[St]
+18.9 +16.2 84 +20 +20 1014.5 1011.7
21 17.06 Ю 5 10 км 10/10 450 м
[St]
+18.6 +16.1 85 +19 +19 1012.9 1010.1
00 18.06 ЮВ 3 9000 м мгла 10/10 210 м
[St]
+17.7 +16.1 90 +18 +18 1014.0 1011.0 +19.8
03 18.06 ЮВ 3 8000 м дымка 10/10 180 м
[St]
+17.5 +16.2 92 +18 +18 1015.7 1012.9
06 18.06 Ю 3 7000 м дымка 10/10 270 м
[St]
+17.4 +15.9 91 +17 +17 1015.2 1012.4
09 18.06 ЮВ 2 8000 м дымка 10/10 270 м
[St]
+17.1 +16.0 93 +17 +17 1014.5 1011.7
12 18.06 ЮВ 3 6000 м дымка 10/10 240 м
[St]
+17.0 +15.5 91 +17 +17 1015.1 1012.3 +16.9
15 18.06 Ю 4 5000 м дымка 10/10 150 м
[St]
+16.8 +15.8 94 +16 +16 1016.7 1013.9
18 18.06 Ю 4 10 км 10/10 400 м
[St]
+18.6 +15.3 81 +19 +19 1015.8 1013.0
21 18.06 ЮВ 4 10 км 10/10 450 м
[Sc]
+18.2 +15.5 84 +18 +18 1014.1 1011.3
00 19.06 Ю 3 10 км 10/10 450 м
[Sc]
+17.6 +15.8 89 +18 +18 1015.1 1012.3 +19.2
03 19.06 ЮВ 2 10 км 10/10 400 м
[St]
+17.6 +15.6 88 +18 +18 1016.4 1013.6
06 19.06 Ю 2 10 км 10/10 270 м
[St]
+17.4 +15.4 88 +18 +18 1015.8 1013.0
09 19.06 Ю 3 9000 м дымка 10/10 210 м
[St]
+17.0 +15.4 90 +17 +17 1015.5 1012.7
12 19.06 ЮВ 2 5000 м дымка 10/10 90 м
[St]
+16.5 +15.7 95 +17 +17 1016.2 1013.4 +16.5
15 19.06 ЮВ 50 6000 м дымка 10/10 360 м
[Sc]
+17.9 +15.7 87 +14 +14 1016.9 1014.1
18 19.06 Ю 38 10 км 10/10 600 м
[Sc]
+18.9 +15.2 79 +20 +20 1015.2 1012.4
21 19.06 Ю 9 9000 м дымка 8/8 600 м
[Sc]
+18.6 +16.4 87 +19 +19 1013.2 1010.4
00 20.06 ЮВ 4 9000 м дымка 10/10 240 м
[Sc]
+17.6 +16.0 90 +17 +17 1014.3 1011.5 +19.6
03 20.06 ЮВ 2 9000 м дымка 10/10 500 м
[St]
+17.6 +15.8 89 +18 +18 1015.3 1012.5
06 20.06 Ю 2 6000 м дымка 10/10 400 м
[St]
+17.6 +15.6 88 +18 +18 1015.1 1012.3
09 20.06 ЮЗ 2 7000 м дымка 10/10 300 м
[St]
+17.2 +15.6 90 +18 +18 1015.6 1012.8
12 20.06 С 2 5000 м дымка 10/10 420 м
[St]
+16.7 +15.9 95 +17 +17 1017.1 1014.3 +16.5
15 20.06 Ю 2 8000 м дымка 8/8 600 м
[St]
+17.6 +16.1 91 +18 +20 1018.3 1015.5
18 20.06 Ю 3 7000 м дымка 10/10 150 м
[St]
+18.1 +16.1 88 +19 +19 1017.3 1014.5
21 20.06 Ю 3 10 км 10/10 570 м
[St]
+18.6 +16.2 86 +20 +20 1015.1 1012.3
00 21.06 ЮВ 4 10 км 10/10 480 м
[St]
+17.8 +16.2 90 +18 +18 1015.9 1013.1 +18.6
03 21.06 ЮВ 4 8000 м дымка 10/10 500 м
[St]
+17.9 +16.1 89 +18 +18 1017.3 1014.5

 

Местоположение метеостанции Trujillo (Перу): широта -8.08 долгота -79.10 высота над уровнем моря 30 м.

В архиве по умолчанию представлена погода в Trujillo за последнюю неделю. Архивные данные за месяц целиком и за предыдущие месяцы, начиная с января 2011 года, Вы можете получить, выбрав интересующий диапазон дат из раскрывающегося списка и нажав кнопку "Ввод!".


*Определитесь, кто Вы:
робот инопланетянин человек

Внимание! Время в таблицах - всемирное. Для получения местного времени необходимо прибавить поправку, которая в Trujillo равна -5 ч.

Смотрите также архив погоды в соседних городах и на ближайших метеорологических станциях:

Погода в Cajamarca (Перу) (127 км)
Погода в Chimbote (Перу) (134 км)
Погода в Chiclayo (Перу) (164 км)
Погода в Anta (Перу) (217 км)
Погода в Chachapoyas (Перу) (251 км)
Погода в Juanjui (Перу) (282 км)
Погода в Tarapoto (Перу) (350 км)
Погода в Piura (Перу) (361 км)
Погода в Tingo Maria (Перу) (366 км)
Погода в Huanuco (Перу) (376 км)

Пояснения к столбцам:

Ветер - указаны скорость ветра в м/с - средняя за 10 мин, порывы в срок и между сроками (в фигурных скобках) и направление, откуда дует ветер: С - северный, СВ - северо-восточный, В - восточный, ЮВ - юго-восточный, Ю - южный, ЮЗ - юго-западный, З - западный, СЗ - северо-западный.
Видимость - горизонтальная дальность видимости в метрах или километрах. При видимости от 1 до 10 км при отсутствии осадков обычно наблюдается дымка, при ухудшении видимости до 1 км и менее - туман. В сухую погоду видимость может ухудшаться дымом, пылью или мглою.
Явления - указаны атмосферные явления, наблюдавшиеся в срок или в последний час перед сроком; фигурными скобками обозначены явления, наблюдавшиеся между сроками (за 1-3 часа до срока); квадратными скобками обозначены град или гололедные отложения с указанием их диаметра в мм.
Облачность - указаны через наклонную черту общая и нижняя облачность в баллах и высота нижней границы облаков в метрах; квадратными скобками обозначены формы облаков: Ci - перистые, Cs - перисто-слоистые, Cc - перисто-кучевые, Ac - высококучевые, As - высокослоистые, Sc - слоисто-кучевые, Ns - слоисто-дождевые, Cu - кучевые, Cb - кучево-дождевые. Подробнее классификацию облаков см. в Атласе облаков (PDF).
T - Температура воздуха - температура, измеренная на высоте 2 м над землей.
Td - Температура точки росы - температура, при понижении до которой содержащийся в воздухе водяной пар достигнет насыщения.
f - Относительная влажность воздуха - влажноcть воздуха, измеренная на высоте 2 м над землей.
Te - Эффективная температура - температура, которую ощущает одетый по сезону человек в тени. Характеристика душности погоды. При расчете учитывается влияние влажности воздуха и скорости ветра на теплоощущения человека.
Tes - Эффективная температура на солнце - температура, которую ощущает человек, с поправкой на солнечный нагрев. Характеристика знойности погоды. Зависит от высоты солнца над горизонтом, облачности и скорости ветра. Ночью, в пасмурную погоду, а также при ветре 12 м/с и более поправка равна нулю.
P - Атмосферное давление - приведенное к уровню моря атмосферное давление.
Po - Атмосферное давление - измеренное на уровне метеостанции атмосферное давление.
Tmin - Минимальная температура - минимум температуры воздуха на высоте 2 м над землей.
Tmax - Максимальная температура - максимум температуры воздуха на высоте 2 м над землей.
R - Количество осадков - Количество выпавших осадков за период времени, мм. При наведении курсора мыши на число - период времени, за который выпало указанное количество осадков.
R24 - Количество осадков - Количество выпавших осадков за 24 часа, мм.
S - Снежный покров - Высота снежного покрова, см. При наведении курсора мыши на число - состояние снежного покрова и степень покрытия местности в баллах.